Location: Malanoce
(44.2500°N, 7.4667°E)
Time: 13:17:09
(UTC+00:00)

ARIANE 5 R/B - Pass Details

Date: 17 November 2025
Orbit: 746 x 792 km, 98.8° (Epoch: 06 December)

Event Time Altitude Azimuth Distance (km) Brightness Sun altitude
Rises 16:38:21 0° 153° (SSE) 3,178 5.6 -6.9°
Reaches altitude 10° 16:40:39 10° 149° (SSE) 2,258 4.8 -7.3°
Maximum altitude 16:45:30 58° 71° (ENE) 873 2.5 -8.1°
Drops below altitude 10° 16:50:24 10° 354° (N) 2,281 4.8 -9.0°
Sets 16:52:44 0° 350° (N) 3,214 5.6 -9.4°
